Location: Chiroubles
(46.1812°N, 4.6660°E)
Time: 10:24:13
(UTC+00:00)

N. Korean satellite - Pass Details

Date: 30 October 2020
Orbit: 453 x 503 km, 97.2° (Epoch: 03 December)

Event Time Altitude Azimuth Distance (km) Brightness Sun altitude
Rises 04:05:31 0° 35° (NE) 2,477 10.7 -23.7°
Reaches altitude 10° 04:09:03 10° 74° (ENE) 1,594 10.2 -23.1°
Maximum altitude 04:09:57 11° 90° (E) 1,543 10.2 -22.9°
Drops below altitude 10° 04:10:55 10° 106° (ESE) 1,598 10.2 -22.8°
Sets 04:14:22 0° 144° (SE) 2,461 10.6 -22.2°
